contact:dominique.lefevre@mio.osupytheas.fr, maurice.libes@osupytheas.fr, didier.mallarino@osupytheas.fr
Project:EMSO http://www.emso-fr.org/EMSO-France
Depth: 2436.0 m
Title:EMSO Ligure Ouest : Data MII capteur MICROCAT
DateTime_Computer,Latitude,Longitude,Temperature,Conductivity,Pressure,DateTime_Instrument
DateTime_Computer,Latitude,Longitude,degC,S m-1,dbar,DateTime_Instrument
2022-10-29T00:00:27Z,42.805,6.029,13.3048,4.60075,2470.661,2022-10-29T02:02:24Z
2022-10-29T00:03:30Z,42.805,6.029,13.3052,4.60079,2470.693,2022-10-29T02:05:27Z
2022-10-29T00:06:33Z,42.805,6.029,13.3037,4.60080,2470.646,2022-10-29T02:08:30Z
2022-10-29T00:09:37Z,42.805,6.029,13.3051,4.60070,2470.67,2022-10-29T02:11:33Z
2022-10-29T00:12:40Z,42.805,6.029,13.3037,4.60074,2470.646,2022-10-29T02:14:36Z
2022-10-29T00:15:43Z,42.805,6.029,13.3036,4.60081,2470.67,2022-10-29T02:17:39Z
2022-10-29T00:18:46Z,42.805,6.029,13.3043,4.60097,2470.624,2022-10-29T02:20:42Z
2022-10-29T00:21:49Z,42.805,6.029,13.3029,4.60078,2470.661,2022-10-29T02:23:45Z
2022-10-29T00:24:52Z,42.805,6.029,13.3036,4.60086,2470.67,2022-10-29T02:26:48Z
2022-10-29T00:27:55Z,42.805,6.029,13.3027,4.60093,2470.684,2022-10-29T02:29:52Z
2022-10-29T00:30:58Z,42.805,6.029,13.3029,4.60088,2470.646,2022-10-29T02:32:55Z
2022-10-29T00:34:01Z,42.805,6.029,13.3048,4.60079,2470.67,2022-10-29T02:35:58Z
2022-10-29T00:37:04Z,42.805,6.029,13.3038,4.60081,2470.661,2022-10-29T02:39:01Z
2022-10-29T00:40:07Z,42.805,6.029,13.3048,4.60097,2470.646,2022-10-29T02:42:04Z
2022-10-29T00:43:10Z,42.805,6.029,13.3033,4.60096,2470.624,2022-10-29T02:45:07Z
2022-10-29T00:46:13Z,42.805,6.029,13.3045,4.60089,2470.646,2022-10-29T02:48:10Z
2022-10-29T00:49:17Z,42.805,6.029,13.3061,4.60080,2470.67,2022-10-29T02:51:13Z
2022-10-29T00:52:20Z,42.805,6.029,13.3063,4.60087,2470.646,2022-10-29T02:54:16Z
2022-10-29T00:55:23Z,42.805,6.029,13.3034,4.60073,2470.661,2022-10-29T02:57:19Z
2022-10-29T00:58:26Z,42.805,6.029,13.3037,4.60101,2470.624,2022-10-29T03:00:22Z
2022-10-29T01:01:29Z,42.805,6.029,13.3042,4.60091,2470.637,2022-10-29T03:03:25Z
2022-10-29T01:04:32Z,42.805,6.029,13.3046,4.60094,2470.646,2022-10-29T03:06:29Z
2022-10-29T01:07:35Z,42.805,6.029,13.3058,4.60095,2470.661,2022-10-29T03:09:32Z
2022-10-29T01:10:38Z,42.805,6.029,13.3056,4.60105,2470.637,2022-10-29T03:12:35Z
2022-10-29T01:13:41Z,42.805,6.029,13.3033,4.60097,2470.624,2022-10-29T03:15:38Z
2022-10-29T01:16:44Z,42.805,6.029,13.3026,4.60106,2470.614,2022-10-29T03:18:41Z
2022-10-29T01:19:47Z,42.805,6.029,13.3051,4.60119,2470.637,2022-10-29T03:21:44Z
2022-10-29T01:22:50Z,42.805,6.029,13.3033,4.60086,2470.624,2022-10-29T03:24:47Z
2022-10-29T01:25:54Z,42.805,6.029,13.3055,4.60117,2470.624,2022-10-29T03:27:50Z
2022-10-29T01:28:57Z,42.805,6.029,13.3041,4.60111,2470.637,2022-10-29T03:30:53Z
2022-10-29T01:32:00Z,42.805,6.029,13.3058,4.60096,2470.637,2022-10-29T03:33:56Z
2022-10-29T01:35:03Z,42.805,6.029,13.3035,4.60138,2470.6,2022-10-29T03:36:59Z
2022-10-29T01:38:06Z,42.805,6.029,13.3039,4.60125,2470.6,2022-10-29T03:40:02Z
2022-10-29T01:41:09Z,42.805,6.029,13.3040,4.60136,2470.6,2022-10-29T03:43:05Z
2022-10-29T01:44:12Z,42.805,6.029,13.3073,4.60145,2470.6,2022-10-29T03:46:09Z
2022-10-29T01:47:15Z,42.805,6.029,13.3051,4.60087,2470.614,2022-10-29T03:49:12Z
2022-10-29T01:50:18Z,42.805,6.029,13.3038,4.60123,2470.614,2022-10-29T03:52:15Z
2022-10-29T01:53:21Z,42.805,6.029,13.3058,4.60125,2470.6,2022-10-29T03:55:18Z
2022-10-29T01:56:24Z,42.805,6.029,13.3029,4.60117,2470.6,2022-10-29T03:58:21Z
2022-10-29T01:59:27Z,42.805,6.029,13.3063,4.60146,2470.614,2022-10-29T04:01:24Z
2022-10-29T02:02:30Z,42.805,6.029,13.3046,4.60072,2470.591,2022-10-29T04:04:27Z
2022-10-29T02:05:34Z,42.805,6.029,13.3036,4.60097,2470.614,2022-10-29T04:07:30Z
2022-10-29T02:08:37Z,42.805,6.029,13.3048,4.60092,2470.614,2022-10-29T04:10:33Z
2022-10-29T02:11:40Z,42.805,6.029,13.3048,4.60122,2470.591,2022-10-29T04:13:36Z
2022-10-29T02:14:43Z,42.805,6.029,13.3039,4.60114,2470.591,2022-10-29T04:16:39Z
2022-10-29T02:17:46Z,42.805,6.029,13.3039,4.60105,2470.6,2022-10-29T04:19:42Z
2022-10-29T02:20:49Z,42.805,6.029,13.3037,4.60099,2470.614,2022-10-29T04:22:45Z
2022-10-29T02:23:52Z,42.805,6.029,13.3060,4.60087,2470.591,2022-10-29T04:25:49Z
2022-10-29T02:26:55Z,42.805,6.029,13.3063,4.60108,2470.6,2022-10-29T04:28:52Z
2022-10-29T02:29:58Z,42.805,6.029,13.3054,4.60084,2470.591,2022-10-29T04:31:55Z
2022-10-29T02:33:01Z,42.805,6.029,13.3048,4.60077,2470.6,2022-10-29T04:34:58Z
2022-10-29T02:36:04Z,42.805,6.029,13.3045,4.60079,2470.577,2022-10-29T04:38:01Z
2022-10-29T02:39:07Z,42.805,6.029,13.3040,4.60106,2470.577,2022-10-29T04:41:04Z
2022-10-29T02:42:10Z,42.805,6.029,13.3034,4.60094,2470.6,2022-10-29T04:44:07Z
2022-10-29T02:45:14Z,42.805,6.029,13.3037,4.60100,2470.553,2022-10-29T04:47:10Z
2022-10-29T02:48:17Z,42.805,6.029,13.3046,4.60118,2470.567,2022-10-29T04:50:13Z
2022-10-29T02:51:20Z,42.805,6.029,13.3043,4.60096,2470.614,2022-10-29T04:53:16Z
2022-10-29T02:54:23Z,42.805,6.029,13.3036,4.60097,2470.591,2022-10-29T04:56:19Z
2022-10-29T02:57:26Z,42.805,6.029,13.3043,4.60099,2470.553,2022-10-29T04:59:22Z
2022-10-29T03:00:29Z,42.805,6.029,13.3036,4.60092,2470.577,2022-10-29T05:02:26Z
2022-10-29T03:03:32Z,42.805,6.029,13.3050,4.60102,2470.553,2022-10-29T05:05:29Z
2022-10-29T03:06:35Z,42.805,6.029,13.3048,4.60087,2470.591,2022-10-29T05:08:32Z
2022-10-29T03:09:38Z,42.805,6.029,13.3041,4.60072,2470.577,2022-10-29T05:11:35Z
2022-10-29T03:12:41Z,42.805,6.029,13.3054,4.60076,2470.567,2022-10-29T05:14:38Z
2022-10-29T03:15:44Z,42.805,6.029,13.3026,4.60094,2470.553,2022-10-29T05:17:41Z
2022-10-29T03:18:47Z,42.805,6.029,13.3026,4.60099,2470.591,2022-10-29T05:20:44Z
2022-10-29T03:21:51Z,42.805,6.029,13.3028,4.60094,2470.577,2022-10-29T05:23:47Z
2022-10-29T03:24:54Z,42.805,6.029,13.3046,4.60092,2470.6,2022-10-29T05:26:50Z
2022-10-29T03:27:57Z,42.805,6.029,13.3046,4.60071,2470.591,2022-10-29T05:29:53Z
2022-10-29T03:31:00Z,42.805,6.029,13.3041,4.60081,2470.591,2022-10-29T05:32:56Z
2022-10-29T03:34:03Z,42.805,6.029,13.3039,4.60084,2470.577,2022-10-29T05:35:59Z
2022-10-29T03:37:06Z,42.805,6.029,13.3036,4.60080,2470.591,2022-10-29T05:39:02Z
2022-10-29T03:40:09Z,42.805,6.029,13.3024,4.60098,2470.614,2022-10-29T05:42:06Z
2022-10-29T03:43:12Z,42.805,6.029,13.3059,4.60121,2470.577,2022-10-29T05:45:09Z
2022-10-29T03:46:15Z,42.805,6.029,13.3038,4.60082,2470.591,2022-10-29T05:48:12Z
2022-10-29T03:49:18Z,42.805,6.029,13.3033,4.60072,2470.6,2022-10-29T05:51:15Z
2022-10-29T03:52:21Z,42.805,6.029,13.3035,4.60080,2470.6,2022-10-29T05:54:18Z
2022-10-29T03:55:24Z,42.805,6.029,13.3031,4.60074,2470.577,2022-10-29T05:57:21Z
2022-10-29T03:58:27Z,42.805,6.029,13.3030,4.60091,2470.577,2022-10-29T06:00:24Z
2022-10-29T04:01:31Z,42.805,6.029,13.3056,4.60121,2470.591,2022-10-29T06:03:27Z
2022-10-29T04:04:34Z,42.805,6.029,13.3051,4.60077,2470.586,2022-10-29T06:06:30Z
2022-10-29T04:07:37Z,42.805,6.029,13.3030,4.60119,2470.591,2022-10-29T06:09:33Z
2022-10-29T04:10:40Z,42.805,6.029,13.3027,4.60086,2470.591,2022-10-29T06:12:36Z
2022-10-29T04:13:43Z,42.805,6.029,13.3019,4.60087,2470.591,2022-10-29T06:15:39Z
2022-10-29T04:16:46Z,42.805,6.029,13.3029,4.60064,2470.553,2022-10-29T06:18:43Z
2022-10-29T04:19:49Z,42.805,6.029,13.3033,4.60090,2470.567,2022-10-29T06:21:46Z
2022-10-29T04:22:52Z,42.805,6.029,13.3025,4.60074,2470.591,2022-10-29T06:24:49Z
2022-10-29T04:25:55Z,42.805,6.029,13.3026,4.60092,2470.591,2022-10-29T06:27:52Z
2022-10-29T04:28:58Z,42.805,6.029,13.3017,4.60085,2470.577,2022-10-29T06:30:55Z
2022-10-29T04:32:01Z,42.805,6.029,13.3026,4.60069,2470.614,2022-10-29T06:33:58Z
2022-10-29T04:35:04Z,42.805,6.029,13.3034,4.60104,2470.591,2022-10-29T06:37:01Z
2022-10-29T04:38:07Z,42.805,6.029,13.3043,4.60075,2470.591,2022-10-29T06:40:04Z
2022-10-29T04:41:11Z,42.805,6.029,13.3058,4.60074,2470.577,2022-10-29T06:43:07Z
2022-10-29T04:44:14Z,42.805,6.029,13.3019,4.60085,2470.6,2022-10-29T06:46:10Z
2022-10-29T04:47:17Z,42.805,6.029,13.3035,4.60086,2470.553,2022-10-29T06:49:13Z
2022-10-29T04:50:20Z,42.805,6.029,13.3021,4.60075,2470.591,2022-10-29T06:52:16Z
2022-10-29T04:53:23Z,42.805,6.029,13.3024,4.60066,2470.6,2022-10-29T06:55:19Z
2022-10-29T04:56:26Z,42.805,6.029,13.3043,4.60088,2470.577,2022-10-29T06:58:23Z
2022-10-29T04:59:29Z,42.805,6.029,13.3040,4.60072,2470.591,2022-10-29T07:01:26Z
2022-10-29T05:02:32Z,42.805,6.029,13.3024,4.60105,2470.577,2022-10-29T07:04:29Z
2022-10-29T05:05:35Z,42.805,6.029,13.3029,4.60070,2470.6,2022-10-29T07:07:32Z
2022-10-29T05:08:38Z,42.805,6.029,13.3044,4.60082,2470.624,2022-10-29T07:10:35Z
2022-10-29T05:11:41Z,42.805,6.029,13.3029,4.60078,2470.614,2022-10-29T07:13:38Z
2022-10-29T05:14:44Z,42.805,6.029,13.3022,4.60081,2470.614,2022-10-29T07:16:41Z
2022-10-29T05:17:47Z,42.805,6.029,13.3031,4.60079,2470.637,2022-10-29T07:19:44Z
2022-10-29T05:20:51Z,42.805,6.029,13.3029,4.60079,2470.624,2022-10-29T07:22:47Z
2022-10-29T05:23:54Z,42.805,6.029,13.3041,4.60074,2470.637,2022-10-29T07:25:50Z
2022-10-29T05:26:57Z,42.805,6.029,13.3024,4.60081,2470.637,2022-10-29T07:28:53Z
2022-10-29T05:30:00Z,42.805,6.029,13.3039,4.60103,2470.624,2022-10-29T07:31:56Z
2022-10-29T05:33:03Z,42.805,6.029,13.3024,4.60064,2470.6,2022-10-29T07:34:59Z
2022-10-29T05:36:06Z,42.805,6.029,13.3032,4.60078,2470.624,2022-10-29T07:38:03Z
2022-10-29T05:39:09Z,42.805,6.029,13.3018,4.60064,2470.661,2022-10-29T07:41:06Z
2022-10-29T05:42:12Z,42.805,6.029,13.3026,4.60082,2470.6,2022-10-29T07:44:09Z
2022-10-29T05:45:15Z,42.805,6.029,13.3026,4.60081,2470.637,2022-10-29T07:47:12Z
2022-10-29T05:48:18Z,42.805,6.029,13.3026,4.60081,2470.646,2022-10-29T07:50:15Z
2022-10-29T05:51:21Z,42.805,6.029,13.3024,4.60079,2470.661,2022-10-29T07:53:18Z
2022-10-29T05:54:24Z,42.805,6.029,13.3022,4.60087,2470.646,2022-10-29T07:56:21Z
2022-10-29T05:57:28Z,42.805,6.029,13.3036,4.60091,2470.661,2022-10-29T07:59:24Z
2022-10-29T06:00:31Z,42.805,6.029,13.3051,4.60079,2470.646,2022-10-29T08:02:27Z
2022-10-29T06:03:34Z,42.805,6.029,13.3042,4.60079,2470.646,2022-10-29T08:05:30Z
2022-10-29T06:06:37Z,42.805,6.029,13.3031,4.60084,2470.684,2022-10-29T08:08:33Z
2022-10-29T06:09:40Z,42.805,6.029,13.3029,4.60094,2470.684,2022-10-29T08:11:36Z
2022-10-29T06:12:43Z,42.805,6.029,13.3037,4.60090,2470.684,2022-10-29T08:14:40Z
2022-10-29T06:15:46Z,42.805,6.029,13.3031,4.60099,2470.646,2022-10-29T08:17:43Z
2022-10-29T06:18:49Z,42.805,6.029,13.3023,4.60086,2470.646,2022-10-29T08:20:46Z
2022-10-29T06:21:52Z,42.805,6.029,13.3041,4.60081,2470.67,2022-10-29T08:23:49Z
2022-10-29T06:24:55Z,42.805,6.029,13.3039,4.60104,2470.684,2022-10-29T08:26:52Z
2022-10-29T06:27:58Z,42.805,6.029,13.3040,4.60082,2470.684,2022-10-29T08:29:55Z
2022-10-29T06:31:01Z,42.805,6.029,13.3036,4.60074,2470.684,2022-10-29T08:32:58Z
2022-10-29T06:34:04Z,42.805,6.029,13.3040,4.60072,2470.707,2022-10-29T08:36:01Z
2022-10-29T06:37:08Z,42.805,6.029,13.3025,4.60072,2470.717,2022-10-29T08:39:04Z
2022-10-29T06:40:11Z,42.805,6.029,13.3038,4.60068,2470.684,2022-10-29T08:42:07Z
2022-10-29T06:43:14Z,42.805,6.029,13.3031,4.60070,2470.693,2022-10-29T08:45:10Z
2022-10-29T06:46:17Z,42.805,6.029,13.3033,4.60067,2470.684,2022-10-29T08:48:13Z
2022-10-29T06:49:20Z,42.805,6.029,13.3024,4.60079,2470.74,2022-10-29T08:51:16Z
2022-10-29T06:52:23Z,42.805,6.029,13.3027,4.60084,2470.717,2022-10-29T08:54:20Z
2022-10-29T06:55:26Z,42.805,6.029,13.3030,4.60095,2470.693,2022-10-29T08:57:23Z
2022-10-29T06:58:29Z,42.805,6.029,13.3046,4.60063,2470.717,2022-10-29T09:00:26Z
2022-10-29T07:01:32Z,42.805,6.029,13.3033,4.60079,2470.73,2022-10-29T09:03:29Z
2022-10-29T07:04:35Z,42.805,6.029,13.3029,4.60062,2470.717,2022-10-29T09:06:32Z
2022-10-29T07:07:38Z,42.805,6.029,13.3027,4.60082,2470.754,2022-10-29T09:09:35Z
2022-10-29T07:10:41Z,42.805,6.029,13.3032,4.60090,2470.717,2022-10-29T09:12:38Z
2022-10-29T07:13:44Z,42.805,6.029,13.3029,4.60085,2470.763,2022-10-29T09:15:41Z
2022-10-29T07:16:48Z,42.805,6.029,13.3036,4.60072,2470.73,2022-10-29T09:18:44Z
2022-10-29T07:19:51Z,42.805,6.029,13.3031,4.60078,2470.74,2022-10-29T09:21:47Z
2022-10-29T07:22:54Z,42.805,6.029,13.3039,4.60078,2470.754,2022-10-29T09:24:50Z
2022-10-29T07:25:57Z,42.805,6.029,13.3028,4.60090,2470.763,2022-10-29T09:27:53Z
2022-10-29T07:29:00Z,42.805,6.029,13.3023,4.60075,2470.763,2022-10-29T09:30:56Z
2022-10-29T07:32:03Z,42.805,6.029,13.3044,4.60065,2470.763,2022-10-29T09:34:00Z
2022-10-29T07:35:06Z,42.805,6.029,13.3029,4.60079,2470.763,2022-10-29T09:37:03Z
2022-10-29T07:38:09Z,42.805,6.029,13.3032,4.60067,2470.777,2022-10-29T09:40:06Z
2022-10-29T07:41:12Z,42.805,6.029,13.3035,4.60074,2470.763,2022-10-29T09:43:09Z
2022-10-29T07:44:15Z,42.805,6.029,13.3033,4.60084,2470.777,2022-10-29T09:46:12Z
2022-10-29T07:47:18Z,42.805,6.029,13.3024,4.60096,2470.777,2022-10-29T09:49:15Z
2022-10-29T07:50:21Z,42.805,6.029,13.3039,4.60068,2470.74,2022-10-29T09:52:18Z
2022-10-29T07:53:25Z,42.805,6.029,13.3030,4.60090,2470.763,2022-10-29T09:55:21Z
2022-10-29T07:56:28Z,42.805,6.029,13.3028,4.60078,2470.763,2022-10-29T09:58:24Z
2022-10-29T07:59:31Z,42.805,6.029,13.3030,4.60073,2470.777,2022-10-29T10:01:27Z
2022-10-29T08:02:34Z,42.805,6.029,13.3031,4.60099,2470.787,2022-10-29T10:04:30Z
2022-10-29T08:05:37Z,42.805,6.029,13.3029,4.60074,2470.824,2022-10-29T10:07:33Z
2022-10-29T08:08:40Z,42.805,6.029,13.3026,4.60084,2470.81,2022-10-29T10:10:37Z
2022-10-29T08:11:43Z,42.805,6.029,13.3021,4.60090,2470.8,2022-10-29T10:13:40Z
2022-10-29T08:14:46Z,42.805,6.029,13.3028,4.60091,2470.787,2022-10-29T10:16:43Z
2022-10-29T08:17:49Z,42.805,6.029,13.3031,4.60081,2470.833,2022-10-29T10:19:46Z
2022-10-29T08:20:52Z,42.805,6.029,13.3024,4.60084,2470.81,2022-10-29T10:22:49Z
2022-10-29T08:23:55Z,42.805,6.029,13.3021,4.60098,2470.763,2022-10-29T10:25:52Z
2022-10-29T08:26:58Z,42.805,6.029,13.3041,4.60087,2470.787,2022-10-29T10:28:55Z
2022-10-29T08:30:02Z,42.805,6.029,13.3029,4.60074,2470.8,2022-10-29T10:31:58Z
2022-10-29T08:33:05Z,42.805,6.029,13.3033,4.60079,2470.824,2022-10-29T10:35:01Z
2022-10-29T08:36:08Z,42.805,6.029,13.3025,4.60068,2470.824,2022-10-29T10:38:04Z
2022-10-29T08:39:11Z,42.805,6.029,13.3031,4.60074,2470.81,2022-10-29T10:41:07Z
2022-10-29T08:42:14Z,42.805,6.029,13.3041,4.60069,2470.81,2022-10-29T10:44:10Z
2022-10-29T08:45:17Z,42.805,6.029,13.3033,4.60077,2470.8,2022-10-29T10:47:14Z
2022-10-29T08:48:20Z,42.805,6.029,13.3043,4.60080,2470.787,2022-10-29T10:50:17Z
2022-10-29T08:51:23Z,42.805,6.029,13.3027,4.60075,2470.824,2022-10-29T10:53:20Z
2022-10-29T08:54:26Z,42.805,6.029,13.3043,4.60068,2470.81,2022-10-29T10:56:23Z
2022-10-29T08:57:29Z,42.805,6.029,13.3021,4.60089,2470.833,2022-10-29T10:59:26Z
2022-10-29T09:00:32Z,42.805,6.029,13.3026,4.60069,2470.833,2022-10-29T11:02:29Z
2022-10-29T09:03:35Z,42.805,6.029,13.3024,4.60074,2470.8,2022-10-29T11:05:32Z
2022-10-29T09:06:39Z,42.805,6.029,13.3028,4.60080,2470.787,2022-10-29T11:08:35Z
2022-10-29T09:09:42Z,42.805,6.029,13.3024,4.60072,2470.824,2022-10-29T11:11:38Z
2022-10-29T09:12:45Z,42.805,6.029,13.3034,4.60070,2470.833,2022-10-29T11:14:41Z
2022-10-29T09:15:48Z,42.805,6.029,13.3030,4.60097,2470.824,2022-10-29T11:17:44Z
2022-10-29T09:18:51Z,42.805,6.029,13.3034,4.60084,2470.833,2022-10-29T11:20:47Z
2022-10-29T09:21:54Z,42.805,6.029,13.3031,4.60084,2470.824,2022-10-29T11:23:51Z
2022-10-29T09:24:57Z,42.805,6.029,13.3030,4.60092,2470.824,2022-10-29T11:26:54Z
2022-10-29T09:28:00Z,42.805,6.029,13.3036,4.60082,2470.824,2022-10-29T11:29:57Z
2022-10-29T09:31:03Z,42.805,6.029,13.3032,4.60068,2470.824,2022-10-29T11:33:00Z
2022-10-29T09:34:06Z,42.805,6.029,13.3034,4.60070,2470.81,2022-10-29T11:36:03Z
2022-10-29T09:37:09Z,42.805,6.029,13.3034,4.60074,2470.833,2022-10-29T11:39:06Z
2022-10-29T09:40:12Z,42.805,6.029,13.3026,4.60087,2470.824,2022-10-29T11:42:09Z
2022-10-29T09:43:16Z,42.805,6.029,13.3028,4.60069,2470.833,2022-10-29T11:45:12Z
2022-10-29T09:46:19Z,42.805,6.029,13.3027,4.60065,2470.81,2022-10-29T11:48:15Z
2022-10-29T09:49:22Z,42.805,6.029,13.3028,4.60078,2470.81,2022-10-29T11:51:18Z
2022-10-29T09:52:25Z,42.805,6.029,13.3029,4.60072,2470.847,2022-10-29T11:54:21Z
2022-10-29T09:55:28Z,42.805,6.029,13.3034,4.60074,2470.787,2022-10-29T11:57:24Z
2022-10-29T09:58:31Z,42.805,6.029,13.3037,4.60079,2470.833,2022-10-29T12:00:28Z
2022-10-29T10:01:34Z,42.805,6.029,13.3027,4.60070,2470.847,2022-10-29T12:03:31Z
2022-10-29T10:04:37Z,42.805,6.029,13.3035,4.60072,2470.824,2022-10-29T12:06:34Z
2022-10-29T10:07:40Z,42.805,6.029,13.3031,4.60081,2470.8,2022-10-29T12:09:37Z
2022-10-29T10:10:43Z,42.805,6.029,13.3027,4.60082,2470.81,2022-10-29T12:12:40Z
2022-10-29T10:13:46Z,42.805,6.029,13.3029,4.60079,2470.81,2022-10-29T12:15:43Z
2022-10-29T10:16:49Z,42.805,6.029,13.3026,4.60072,2470.81,2022-10-29T12:18:46Z
2022-10-29T10:19:53Z,42.805,6.029,13.3026,4.60067,2470.833,2022-10-29T12:21:49Z
2022-10-29T10:22:56Z,42.805,6.029,13.3030,4.60073,2470.833,2022-10-29T12:24:52Z
2022-10-29T10:25:59Z,42.805,6.029,13.3031,4.60074,2470.833,2022-10-29T12:27:55Z
2022-10-29T10:29:02Z,42.805,6.029,13.3037,4.60078,2470.81,2022-10-29T12:30:58Z
2022-10-29T10:32:05Z,42.805,6.029,13.3028,4.60072,2470.787,2022-10-29T12:34:01Z
2022-10-29T10:35:08Z,42.805,6.029,13.3027,4.60070,2470.824,2022-10-29T12:37:05Z
2022-10-29T10:38:11Z,42.805,6.029,13.3033,4.60072,2470.81,2022-10-29T12:40:08Z
2022-10-29T10:41:14Z,42.805,6.029,13.3038,4.60073,2470.824,2022-10-29T12:43:11Z
2022-10-29T10:44:17Z,42.805,6.029,13.3036,4.60072,2470.857,2022-10-29T12:46:14Z
2022-10-29T10:47:20Z,42.805,6.029,13.3024,4.60069,2470.81,2022-10-29T12:49:17Z
2022-10-29T10:50:23Z,42.805,6.029,13.3028,4.60067,2470.796,2022-10-29T12:52:20Z
2022-10-29T10:53:26Z,42.805,6.029,13.3039,4.60075,2470.833,2022-10-29T12:55:23Z
2022-10-29T10:56:30Z,42.805,6.029,13.3023,4.60073,2470.81,2022-10-29T12:58:26Z
2022-10-29T10:59:33Z,42.805,6.029,13.3015,4.60069,2470.8,2022-10-29T13:01:29Z
2022-10-29T11:02:36Z,42.805,6.029,13.3034,4.60072,2470.787,2022-10-29T13:04:32Z
2022-10-29T11:05:39Z,42.805,6.029,13.3027,4.60070,2470.824,2022-10-29T13:07:35Z
2022-10-29T11:08:42Z,42.805,6.029,13.3034,4.60077,2470.787,2022-10-29T13:10:38Z
2022-10-29T11:11:45Z,42.805,6.029,13.3041,4.60082,2470.8,2022-10-29T13:13:42Z
2022-10-29T11:14:48Z,42.805,6.029,13.3029,4.60074,2470.81,2022-10-29T13:16:45Z
2022-10-29T11:17:51Z,42.805,6.029,13.3031,4.60078,2470.81,2022-10-29T13:19:48Z
2022-10-29T11:20:54Z,42.805,6.029,13.3038,4.60075,2470.787,2022-10-29T13:22:51Z
2022-10-29T11:23:57Z,42.805,6.029,13.3035,4.60072,2470.8,2022-10-29T13:25:54Z
2022-10-29T11:27:00Z,42.805,6.029,13.3030,4.60069,2470.8,2022-10-29T13:28:57Z
2022-10-29T11:30:03Z,42.805,6.029,13.3039,4.60084,2470.787,2022-10-29T13:32:00Z
2022-10-29T11:33:07Z,42.805,6.029,13.3030,4.60069,2470.777,2022-10-29T13:35:03Z
2022-10-29T11:36:10Z,42.805,6.029,13.3032,4.60081,2470.787,2022-10-29T13:38:06Z
2022-10-29T11:39:13Z,42.805,6.029,13.3035,4.60082,2470.787,2022-10-29T13:41:09Z
2022-10-29T11:42:16Z,42.805,6.029,13.3034,4.60077,2470.763,2022-10-29T13:44:12Z
2022-10-29T11:45:19Z,42.805,6.029,13.3031,4.60073,2470.763,2022-10-29T13:47:15Z
2022-10-29T11:48:22Z,42.805,6.029,13.3033,4.60082,2470.763,2022-10-29T13:50:19Z
2022-10-29T11:51:25Z,42.805,6.029,13.3023,4.60069,2470.777,2022-10-29T13:53:22Z
2022-10-29T11:54:28Z,42.805,6.029,13.3027,4.60070,2470.777,2022-10-29T13:56:25Z
2022-10-29T11:57:31Z,42.805,6.029,13.3027,4.60075,2470.763,2022-10-29T13:59:28Z
2022-10-29T12:00:34Z,42.805,6.029,13.3028,4.60078,2470.787,2022-10-29T14:02:31Z
2022-10-29T12:03:37Z,42.805,6.029,13.3036,4.60078,2470.763,2022-10-29T14:05:34Z
2022-10-29T12:06:40Z,42.805,6.029,13.3031,4.60079,2470.763,2022-10-29T14:08:37Z
2022-10-29T12:09:44Z,42.805,6.029,13.3035,4.60075,2470.763,2022-10-29T14:11:40Z
2022-10-29T12:12:47Z,42.805,6.029,13.3032,4.60067,2470.763,2022-10-29T14:14:43Z
2022-10-29T12:15:50Z,42.805,6.029,13.3025,4.60080,2470.787,2022-10-29T14:17:46Z
2022-10-29T12:18:53Z,42.805,6.029,13.3027,4.60070,2470.763,2022-10-29T14:20:49Z
2022-10-29T12:21:56Z,42.805,6.029,13.3034,4.60076,2470.777,2022-10-29T14:23:52Z
2022-10-29T12:24:59Z,42.805,6.029,13.3035,4.60079,2470.726,2022-10-29T14:26:56Z
2022-10-29T12:28:02Z,42.805,6.029,13.3028,4.60080,2470.74,2022-10-29T14:29:59Z
2022-10-29T12:31:05Z,42.805,6.029,13.3028,4.60072,2470.763,2022-10-29T14:33:02Z
2022-10-29T12:34:08Z,42.805,6.029,13.3029,4.60075,2470.754,2022-10-29T14:36:05Z
2022-10-29T12:37:11Z,42.805,6.029,13.3040,4.60078,2470.754,2022-10-29T14:39:08Z
2022-10-29T12:40:14Z,42.805,6.029,13.3035,4.60073,2470.73,2022-10-29T14:42:11Z
2022-10-29T12:43:17Z,42.805,6.029,13.3032,4.60072,2470.74,2022-10-29T14:45:14Z
2022-10-29T12:46:21Z,42.805,6.029,13.3028,4.60072,2470.74,2022-10-29T14:48:17Z
2022-10-29T12:49:24Z,42.805,6.029,13.3036,4.60069,2470.754,2022-10-29T14:51:20Z
2022-10-29T12:52:27Z,42.805,6.029,13.3029,4.60082,2470.74,2022-10-29T14:54:23Z
2022-10-29T12:55:30Z,42.805,6.029,13.3032,4.60067,2470.74,2022-10-29T14:57:26Z
2022-10-29T12:58:33Z,42.805,6.029,13.3030,4.60081,2470.73,2022-10-29T15:00:29Z
2022-10-29T13:01:36Z,42.805,6.029,13.3026,4.60074,2470.693,2022-10-29T15:03:33Z
2022-10-29T13:04:39Z,42.805,6.029,13.3034,4.60069,2470.74,2022-10-29T15:06:36Z
2022-10-29T13:07:42Z,42.805,6.029,13.3033,4.60069,2470.74,2022-10-29T15:09:39Z
2022-10-29T13:10:45Z,42.805,6.029,13.3036,4.60067,2470.707,2022-10-29T15:12:42Z
2022-10-29T13:13:48Z,42.805,6.029,13.3032,4.60077,2470.693,2022-10-29T15:15:45Z
2022-10-29T13:16:51Z,42.805,6.029,13.3026,4.60074,2470.73,2022-10-29T15:18:48Z
2022-10-29T13:19:54Z,42.805,6.029,13.3029,4.60072,2470.73,2022-10-29T15:21:51Z
2022-10-29T13:22:58Z,42.805,6.029,13.3026,4.60071,2470.754,2022-10-29T15:24:54Z
2022-10-29T13:26:01Z,42.805,6.029,13.3028,4.60079,2470.693,2022-10-29T15:27:57Z
2022-10-29T13:29:04Z,42.805,6.029,13.3036,4.60077,2470.73,2022-10-29T15:31:00Z
2022-10-29T13:32:07Z,42.805,6.029,13.3037,4.60074,2470.693,2022-10-29T15:34:03Z
2022-10-29T13:35:10Z,42.805,6.029,13.3035,4.60073,2470.707,2022-10-29T15:37:06Z
2022-10-29T13:38:13Z,42.805,6.029,13.3033,4.60075,2470.693,2022-10-29T15:40:10Z
2022-10-29T13:41:16Z,42.805,6.029,13.3032,4.60073,2470.693,2022-10-29T15:43:13Z
2022-10-29T13:44:19Z,42.805,6.029,13.3032,4.60075,2470.73,2022-10-29T15:46:16Z
2022-10-29T13:47:22Z,42.805,6.029,13.3042,4.60074,2470.74,2022-10-29T15:49:19Z
2022-10-29T13:50:25Z,42.805,6.029,13.3039,4.60079,2470.717,2022-10-29T15:52:22Z
2022-10-29T13:53:28Z,42.805,6.029,13.3032,4.60081,2470.693,2022-10-29T15:55:25Z
2022-10-29T13:56:31Z,42.805,6.029,13.3034,4.60076,2470.717,2022-10-29T15:58:28Z
2022-10-29T13:59:35Z,42.805,6.029,13.3039,4.60077,2470.693,2022-10-29T16:01:31Z
2022-10-29T14:02:38Z,42.805,6.029,13.3038,4.60084,2470.693,2022-10-29T16:04:34Z
2022-10-29T14:05:41Z,42.805,6.029,13.3034,4.60078,2470.684,2022-10-29T16:07:37Z
2022-10-29T14:08:44Z,42.805,6.029,13.3026,4.60071,2470.684,2022-10-29T16:10:40Z
2022-10-29T14:11:47Z,42.805,6.029,13.3029,4.60071,2470.684,2022-10-29T16:13:43Z
2022-10-29T14:14:50Z,42.805,6.029,13.3033,4.60077,2470.707,2022-10-29T16:16:47Z
2022-10-29T14:17:53Z,42.805,6.029,13.3030,4.60072,2470.67,2022-10-29T16:19:50Z
2022-10-29T14:20:56Z,42.805,6.029,13.3029,4.60077,2470.67,2022-10-29T16:22:53Z
2022-10-29T14:23:59Z,42.805,6.029,13.3031,4.60068,2470.684,2022-10-29T16:25:56Z
2022-10-29T14:27:02Z,42.805,6.029,13.3036,4.60079,2470.684,2022-10-29T16:28:59Z
2022-10-29T14:30:05Z,42.805,6.029,13.3034,4.60070,2470.693,2022-10-29T16:32:02Z
2022-10-29T14:33:08Z,42.805,6.029,13.3028,4.60071,2470.67,2022-10-29T16:35:05Z
2022-10-29T14:36:12Z,42.805,6.029,13.3028,4.60078,2470.684,2022-10-29T16:38:08Z
2022-10-29T14:39:15Z,42.805,6.029,13.3034,4.60074,2470.684,2022-10-29T16:41:11Z
2022-10-29T14:42:18Z,42.805,6.029,13.3030,4.60079,2470.684,2022-10-29T16:44:14Z
2022-10-29T14:45:21Z,42.805,6.029,13.3042,4.60077,2470.646,2022-10-29T16:47:17Z
2022-10-29T14:48:24Z,42.805,6.029,13.3039,4.60070,2470.707,2022-10-29T16:50:20Z
2022-10-29T14:51:27Z,42.805,6.029,13.3035,4.60078,2470.661,2022-10-29T16:53:24Z
2022-10-29T14:54:30Z,42.805,6.029,13.3034,4.60074,2470.67,2022-10-29T16:56:27Z
2022-10-29T14:57:33Z,42.805,6.029,13.3045,4.60074,2470.646,2022-10-29T16:59:30Z
2022-10-29T15:00:36Z,42.805,6.029,13.3040,4.60078,2470.67,2022-10-29T17:02:33Z